sat.trackr.live / text

‹ back to catalog

STARLINK-36721

NORAD 67916 · 2026-036N

PAYLOAD ACTIVE UNKNOWN

§ Identity

Operator
Country
US
Launch date
2026-02-22
Launch site
AFETR
Launch vehicle
Mass (kg)
RCS (m²)

Purposes: comms

External: N2YO · Heavens-Above · Gunter

§ Orbital elements

Epoch: 2026-05-25T02:48:29.325312Z

Period
94.27 min
Inclination
43.0003°
Eccentricity
0.0001086
Mean motion
15.27590246 rev/d
Perigee alt
482.3 km
Apogee alt
483.8 km
Semi-major
6,861.2 km
B*
3.5507e-4
RAAN
173.3736°
Arg perigee
269.2910°
Mean anomaly
90.7817°
Rev number
1,541

§ Raw data

STARLINK-367211 67916U 26036N   26145.11700608  .00009524  00000+0  35507-3 0  99992 67916  43.0003 173.3736 0001086 269.2910  90.7817 15.27590246 15419

JSON: /api/v1/satellites/67916 · /tle

For live sub-satellite position, see the globe view (requires WebGL).

§ Visibility from observer

Set your observer location to see the next 7 days of passes ≥ 10°. The values pass through the URL so the page stays shareable.

No JS? Fill the form by hand. The geolocation button needs JavaScript.